This is the latest recevied weather packets stored in our database for station/object K4AXV-13. If no packets are shown the sender has not sent any weather packets the latest 10 day(s).
| Time | Temp. | Humidity | Pressure | Rain* | Wind** | Luminosity | Snow |
|---|---|---|---|---|---|---|---|
| 1778020461 | 22.78° C | - | - | 0 mm | 0.45 m/s, 89° | - | - |
| 1778019561 | 22.78° C | - | - | 0 mm | 1.34 m/s, 226° | - | - |
| 1778018659 | 23.33° C | - | - | 0 mm | 0.45 m/s, 309° | - | - |
| 1778017158 | 23.33° C | - | - | 0 mm | 1.34 m/s, 167° | - | - |
| 1778016255 | 24.44° C | - | - | 0 mm | 1.34 m/s, 143° | - | - |
| 1778012954 | 24.44° C | - | - | 0 mm | 3.13 m/s, 118° | - | - |
| 1778012353 | 25° C | - | - | 0 mm | 1.34 m/s, 301° | - | - |
| 1778012051 | 25.56° C | - | - | 0 mm | 1.79 m/s, 98° | - | - |
| 1777996136 | 25° C | - | - | 0 mm | 0.45 m/s, 330° | - | - |
| 1777995834 | 25° C | - | - | 0 mm | 2.24 m/s, 89° | - | - |
| 1777994935 | 25° C | - | - | 0 mm | 0.45 m/s, 0° | - | - |
| 1777994633 | 23.89° C | - | - | 0 mm | 0.45 m/s, 276° | - | - |
| 1777993133 | 22.78° C | - | - | 0 mm | 0 m/s | - | - |
| 1777992231 | 22.78° C | - | - | 0 mm | 0.45 m/s, 108° | - | - |
| 1777991631 | 22.22° C | - | - | 0 mm | 0.45 m/s, 356° | - | - |
| 1777991332 | 21.67° C | - | - | 0 mm | 0.89 m/s, 25° | - | - |
| 1777991030 | 21.67° C | - | - | 0 mm | 1.34 m/s, 329° | - | - |
| 1777990731 | 21.67° C | - | - | 0 mm | 2.68 m/s, 132° | - | - |
| 1777990429 | 21.67° C | - | - | 0 mm | 0.89 m/s, 131° | - | - |
| 1777989829 | 21.11° C | - | - | 0 mm | 0.89 m/s, 89° | - | - |
| 1777989562 | 21.11° C | - | - | 0 mm | 0.89 m/s, 277° | - | - |
| 1777989530 | 21.11° C | - | - | 0 mm | 0.89 m/s, 277° | - | - |
| 1777988929 | 20.56° C | - | - | 0 mm | 0.89 m/s, 18° | - | - |
| 1777988627 | 21.11° C | - | - | 0 mm | 1.79 m/s, 342° | - | - |
| 1777988387 | 20° C | - | - | 0 mm | 0.45 m/s, 124° | - | - |
* Rain latest hour (hover to see other rain measurements)
** Current wind speed in m/s (hover to see current wind gust speed)